Home   Weather   San Bernardino   Past weeks

Flag for USA Past Weather in San Bernardino, California, USA — Yesterday and Last 2 Weeks

Now
75 °F

Clear.


Feels Like: 78 °F
Forecast: 62 / 86 °F
Wind: No wind

Location: Riverside Municipal Airport

Current Time: Oct 1, 2016 at 12:14:11 AM

Latest Report: Sep 30, 2016 at 10:53 PM


Visibility: 10 mi

Pressure: 29.94 "Hg

Humidity: 42%

Dew Point: 50 °F

Location of San BernardinoLocation

Past Weather in San Bernardino — Graph

°F

San Bernardino Temperature Yesterday

Maximum temperature yesterday: 94 °F (at 2:53 PM)
Minimum temperature yesterday: 67 °F (at 4:53 AM)
Average temperature yesterday: 80 °F

High & Low Weather Summary for the Past Weeks

 TemperatureHumidityPressure
High105 °F (Sep 18, 1:53 PM)86% (Sep 23, 6:53 AM)30.01 "Hg (Sep 23, 6:53 AM)
Low54 °F (Sep 23, 6:53 AM)5% (Sep 18, 12:53 PM)29.77 "Hg (Sep 27, 2:53 PM)
Average78 °F41%29.89 "Hg
* Reported Sep 15 10:53 PM — Sep 30 10:53 PM, San Bernardino, Weather by CustomWeather, © 2016

Note: Actual official high and low records may vary slightly from our data, if they occured in-between our weather recording intervals... More about our weather records

Advertising

San Bernardino Weather History for the Previous 24 Hours

Scroll right to see more
 ConditionsComfort  
Time TempWeatherWind HumidityBarometerVisibility
10:53 PM
Fri, Sep 30
75 °FClear.No wind42%29.94 "Hg10 mi
9:53 PM77 °FClear.5 mph39%29.93 "Hg10 mi
8:53 PM79 °FClear.6 mph35%29.92 "Hg10 mi
7:53 PM80 °FClear.9 mph36%29.90 "Hg10 mi
6:53 PM83 °FClear.13 mph33%29.89 "Hg10 mi
5:53 PM87 °FSunny.15 mph30%29.88 "Hg10 mi
4:53 PM91 °FSunny.18 mph26%29.88 "Hg10 mi
3:53 PM93 °FScattered clouds.15 mph21%29.88 "Hg10 mi
2:53 PM94 °FScattered clouds.16 mph22%29.90 "Hg9 mi
1:53 PM93 °FSunny.9 mph21%29.91 "Hg10 mi
12:53 PM92 °FSunny.5 mph21%29.95 "Hg10 mi
11:53 AM89 °FPassing clouds.3 mph24%29.98 "Hg10 mi
10:53 AM87 °FSunny.No wind28%30.00 "Hg10 mi
9:53 AM83 °FSunny.No wind34%30.01 "Hg10 mi
8:53 AM76 °FSunny.No wind43%30.01 "Hg10 mi
7:53 AM70 °FSunny.No wind57%30.01 "Hg10 mi
6:53 AM68 °FSunny.No wind59%30.00 "Hg10 mi
5:53 AM67 °FClear.3 mph63%29.99 "Hg10 mi
4:53 AM67 °FClear.3 mph68%29.98 "Hg10 mi
3:53 AM69 °FClear.5 mph63%29.98 "Hg10 mi
2:53 AM71 °FClear.No wind55%29.99 "Hg10 mi
1:53 AM71 °FClear.3 mph55%29.99 "Hg10 mi
12:53 AM73 °FClear.No wind55%29.99 "Hg10 mi
Weather by CustomWeather, © 2016

See weather overviewHow to use our weather pages